sat.trackr.live / text

‹ back to catalog

STARLINK-4181

NORAD 52882 · 2022-062BE

PAYLOAD ACTIVE UNKNOWN

§ Identity

Operator
Country
US
Launch date
2022-06-17
Launch site
AFETR
Launch vehicle
Mass (kg)
RCS (m²)

Purposes: comms

External: N2YO · Heavens-Above · Gunter

§ Orbital elements

Epoch: 2026-09-19T11:59:59.221536Z

Period
94.30 min
Inclination
53.1533°
Eccentricity
0.0002129
Mean motion
15.26963119 rev/d
Perigee alt
483.4 km
Apogee alt
486.4 km
Semi-major
6,863.0 km
B*
1.6414e-4
RAAN
216.8062°
Arg perigee
64.7353°
Mean anomaly
295.3867°
Rev number
23,542

§ Raw data

STARLINK-41811 52882U 22062BE  26262.49999099  .00004058  00000+0  16414-3 0  99982 52882  53.1533 216.8062 0002129  64.7353 295.3867 15.26963119235423

JSON: /api/v1/satellites/52882 · /tle

For live sub-satellite position, see the globe view (requires WebGL).

§ Visibility from observer

Set your observer location to see the next 7 days of passes ≥ 10°. The values pass through the URL so the page stays shareable.

No JS? Fill the form by hand. The geolocation button needs JavaScript.